www.pogodaiklimat.ru

Погода и климат >> Архив погоды >> Молдова >> Сороки


ПОГОДА в Сороках

  • Прогноз погоды в Сороках
  • Монитор погоды в Сороках
  • Климат города

АРХИВ ПОГОДЫ в Сороках

Время (UTC), дата Ветер
(напр.,м/с)
 
Видим.   Явления Облачность Т
(С)
Тd
(С)
f
(%)
Тe
(С)
Тes
(С)
Комфортность P
(гПа)
Po
(гПа)
Тmin
(С)
Tmax
(С)
R
(мм)
R24
(мм)
S
(см)
06 14.02 В 2 2000 м снег 10/10 600 м
[Frnb Ns]
-1.4 -2.1 95 -5 -5 1017.7 995.9 -1.4 0.6 10
09 14.02 ЮВ 4 4000 м слабый снег 10/10 600 м
[Frnb Ns]
-0.8 -1.5 95 -7 -7 1018.6 996.8
12 14.02 В 4 4000 м слабый снег 10/10 600 м
[Sc]
-0.6 -1.9 91 -6 -6 1019.1 997.3
15 14.02 В 3 4000 м слабый снег 10/10 600 м
[Sc]
-1.1 -2.4 91 -6 -6 1019.6 997.8
18 14.02 В 3 4000 м слабый снег 10/10 600 м
[Sc]
-1.9 -4.1 85 -7 -7 1020.7 998.8 -0.4 1
21 14.02 В 4 10 км {снег} 10/10 600 м
[Sc]
-2.2 -4.4 85 -8 -8 1020.8 998.8
00 15.02 В 2 4000 м слабый снег 10/10 600 м
[Sc]
-2.6 -4.0 90 -7 -7 1021.1 999.1
03 15.02 В 3 2000 м снег 10/10 600 м
[Frnb Ns]
-2.6 -3.6 93 -8 -8 1021.2 999.2
06 15.02 В 3 2000 м слабый снег 10/10 600 м
[Frnb Ns]
-2.4 -3.4 93 -8 -8 1022.2 1000.2 -2.7 3 15
09 15.02 В 3 4000 м слабый снег 10/10 600 м
[Frnb Ns]
-0.9 -2.8 87 -6 -6 1023.1 1001.2
12 15.02 В 2 4000 м дымка {снег} 10/10 600 м
[Sc]
+0.5 -2.4 81 -3 -3 1023.4 1001.6
15 15.02 С 1 2000 м слабый снег 10/10 600 м
[Sc]
+0.1 -1.2 91 -2 -2 1024.4 1002.6
18 15.02 СВ 1 2000 м слабый снег 10/10 600 м
[Sc]
0.0 -1.1 92 -2 -2 1026.0 1004.1 +0.8 1
21 15.02 В 2 50 км дымка 10/10 1000 м
[Sc]
+0.2 -0.8 93 -4 -4 1026.6 1004.4
00 16.02 В 2 4000 м дымка 10/10 600 м
[Sc]
+0.3 -1.4 88 -3 -3 1026.9 1004.6
03 16.02 штиль 0 500 м туман ?/? -0.3 -0.3 100 -2 -2 1027.0 1005.2
06 16.02 штиль 0 500 м туман ?/? +0.3 +0.3 100 -1 -1 1027.3 1005.2 -0.5 15
09 16.02 В 1 500 м туман {морось} ?/? +0.4 -0.4 94 -2 -2 1029.0 1005.3
12 16.02 В 1 2000 м дымка {туман} 10/10 600 м
[Sc]
+1.2 +0.9 98 -1 -1 1029.8 1005.9
15 16.02 Ю 1 4000 м дымка 10/10 600 м
[Sc]
+1.4 +0.9 96 -1 -1 1026.0 1004.1
18 16.02 Ю 2 4000 м дымка 10/10 600 м
[Sc]
+0.8 -0.3 92 -3 -3 1026.7 1004.5 +1.5
21 16.02 З 1 2000 м дымка 10/10 600 м
[St]
+0.1 -0.5 96 -2 -2 1026.0 1004.1
00 17.02 З 4 2000 м слабый снег 10/10 600 м
[St]
+0.1 -0.6 95 -6 -6 1026.3 1004.4
03 17.02 З 4 4000 м дымка {снег} 8/8 600 м
[Sc diur, vesp]
-1.9 -2.7 94 -8 -8 1026.1 1004.1
06 17.02 З 3 10 км {снег} 10/10 600 м
[Sc]
-0.9 -2.2 91 -6 -6 1026.6 1004.6 -2.7 0.3 15
09 17.02 СЗ 3 10 км 10/10 600 м
[Sc]
+0.5 -1.1 89 -4 -4 1026.7 1004.8
12 17.02 С 3 20 км 3/0
[Ac lent]
+2.1 -5.3 58 -2 +1 1025.7 1004.0
15 17.02 З 2 20 км ясно +0.6 -5.4 64 -3 -3 1024.8 1003.0
18 17.02 З 2 20 км ясно -4.5 -7.4 80 -9 -9 1025.3 1003.1 +2.2
21 17.02 штиль 0 20 км ясно -2.5 -6.0 77 -3 -3 1024.7 1002.6
00 18.02 штиль 0 10 км ясно -5.3 -6.3 93 -6 -6 1024.7 1002.4
03 18.02 штиль 0 20 км ясно -5.2 -6.2 93 -6 -6 1023.9 1001.6
06 18.02 штиль 0 1000 м в посл. час туман 9/0
[Ac trans Ci fib]
-4.8 -5.5 95 -6 -5 1024.0 1001.8 -6.7 11
09 18.02 Ю 1 4000 м дымка 8/0
[Ac trans Ci fib]
-1.6 -3.9 84 -4 +1 1023.7 1001.7
12 18.02 С 1 20 км 9/0
[Ac trans]
+0.9 -3.2 74 -1 +2 1023.3 1001.5
15 18.02 З 1 20 км 10/0
[Ac und]
+0.3 -2.4 82 -2 -2 1023.4 1001.6
18 18.02 З 3 20 км 10/10 600 м
[Sc]
+0.3 -2.6 81 -4 -4 1024.1 1002.3 +2.7
21 18.02 З 4 4000 м дымка 9/6 600 м
[Sc Ac trans]
-1.0 -2.6 89 -7 -7 1024.5 1002.6
00 19.02 С 6 4000 м дымка 10/10
[Sc]
-0.7 -3.6 81 -7 -7 1025.2 1003.3
03 19.02 С 4 20 км ясно -5.4 -9.0 76 -12 -12 1026.1 1003.8
06 19.02 С 3 20 км 10/0
[Ac und]
-3.0 -6.5 77 -8 -8 1027.2 1005.0 -7.2 7
09 19.02 С 3 20 км 10/6 1000 м
[Sc Ac As]
-1.7 -7.8 63 -6 -6 1027.6 1005.5
12 19.02 С 4 20 км 8/0
[Ac trans]
-1.8 -7.9 63 -7 -6 1027.1 1005.0
15 19.02 С 3 20 км ясно -4.1 -8.8 70 -9 -9 1027.0 1004.7
18 19.02 З 1 20 км ясно -6.8 -10.0 78 -9 -9 1027.3 1004.8 -1.2
21 19.02 штиль 0 20 км ясно -6.9 -9.3 83 -8 -8 1026.9 1004.4
00 20.02 В 1 4000 м дымка ясно -8.3 -9.4 92 -11 -11 1027.3 1004.7
03 20.02 штиль 0 4000 м дымка ясно -11.9 -13.6 87 -12 -12 1027.0 1004.1
06 20.02 штиль 0 500 м переохл. туман 3/0
[Ci fib]
-12.2 -14.1 86 -12 -11 1027.4 1004.4 -13.7 5
09 20.02 ЮВ 1 4000 м дымка {туман} 3/0
[Ci fib]
-4.4 -6.1 88 -7 -1 1026.5 1004.2
12 20.02 Ю 1 20 км {туман} 3/0
[Ac trans]
+0.6 -5.8 62 -1 +3 1024.7 1002.9
15 20.02 В 3 20 км 3/0
[Ci fib]
+0.4 -6.7 59 -4 -4 1023.4 1001.6
18 20.02 В 4 20 км ясно -2.6 -7.3 70 -8 -8 1023.8 1001.7 +1.3
21 20.02 В 1 20 км ясно -5.0 -8.4 77 -7 -7 1024.3 1002.0
00 21.02 В 1 20 км ясно -4.6 -7.8 78 -7 -7 1024.1 1001.9

 

Местоположение метеостанции Сороки (Молдова): широта 48.20 долгота 28.30 высота над уровнем моря 173 м.

В архиве по умолчанию представлена погода в Сороках за последнюю неделю. Архивные данные за месяц целиком и за предыдущие месяцы, начиная с января 2011 года, Вы можете получить, выбрав интересующий диапазон дат из раскрывающегося списка и нажав кнопку "Ввод!".

Внимание! Время в таблицах - всемирное. Для получения местного времени необходимо прибавить поправку, которая в Сороках равна 2 ч.

Смотрите также архив погоды в соседних городах и на ближайших метеорологических станциях:

Погода в Каменке (Молдова) (35 км)
Погода в Могилев-Подольском (Винницкая область, Украина) (47 км)
Погода в Бельцах (Молдова) (53 км)
Погода в Рыбнице (Молдова) (72 км)
Погода в Новоднестровске (Черновицкая область, Украина) (75 км)
Погода в Фалештах (Молдова) (82 км)
Погода в Stanca Stefanesti (Румыния) (90 км)
Погода в Бричанах (Молдова) (92 км)
Погода в Бравичах (Молдова) (93 км)
Погода в Жмеринке (Винницкая область, Украина) (96 км)

Пояснения к столбцам:

Ветер - указаны скорость ветра в м/с - средняя за 10 мин, порывы в срок и между сроками (в фигурных скобках) и направление, откуда дует ветер: С - северный, СВ - северо-восточный, В - восточный, ЮВ - юго-восточный, Ю - южный, ЮЗ - юго-западный, З - западный, СЗ - северо-западный.
Видимость - горизонтальная дальность видимости в метрах или километрах. При видимости от 1 до 10 км при отсутствии осадков обычно наблюдается дымка, при ухудшении видимости до 1 км и менее - туман. В сухую погоду видимость может ухудшаться дымом, пылью или мглою.
Явления - указаны атмосферные явления, наблюдавшиеся в срок или в последний час перед сроком; фигурными скобками обозначены явления, наблюдавшиеся между сроками (за 1-3 часа до срока); квадратными скобками обозначены град или гололедные отложения с указанием их диаметра в мм.
Облачность - указаны через наклонную черту общая и нижняя облачность в баллах и высота нижней границы облаков в метрах; квадратными скобками обозначены формы облаков: Ci - перистые, Cs - перисто-слоистые, Cc - перисто-кучевые, Ac - высококучевые, As - высокослоистые, Sc - слоисто-кучевые, Ns - слоисто-дождевые, Cu - кучевые, Cb - кучево-дождевые. Подробнее классификацию облаков см. в Атласе облаков (PDF).
T - Температура воздуха - температура, измеренная на высоте 2 м над землей.
Td - Температура точки росы - температура, при понижении до которой содержащийся в воздухе водяной пар достигнет насыщения.
f - Относительная влажность воздуха - влажноcть воздуха, измеренная на высоте 2 м над землей.
Te - Эффективная температура - температура, которую ощущает одетый по сезону человек в тени. Характеристика душности погоды. При расчете учитывается влияние влажности воздуха и скорости ветра на теплоощущения человека.
Tes - Эффективная температура на солнце - температура, которую ощущает человек, с поправкой на солнечный нагрев. Характеристика знойности погоды. Зависит от высоты солнца над горизонтом, облачности и скорости ветра. Ночью, в пасмурную погоду, а также при ветре 12 м/с и более поправка равна нулю.
P - Атмосферное давление - приведенное к уровню моря атмосферное давление.
Po - Атмосферное давление - измеренное на уровне метеостанции атмосферное давление.
Tmin - Минимальная температура - минимум температуры воздуха на высоте 2 м над землей.
Tmax - Максимальная температура - максимум температуры воздуха на высоте 2 м над землей.
R - Количество осадков - Количество выпавших осадков за период времени, мм. При наведении курсора мыши на число - период времени, за который выпало указанное количество осадков.
R24 - Количество осадков - Количество выпавших осадков за 24 часа, мм.
S - Снежный покров - Высота снежного покрова, см. При наведении курсора мыши на число - состояние снежного покрова и степень покрытия местности в баллах.